This demonstration page uses our WeatherBlox Daily Observations layout. Learn more.

Left ArrowRight Arrow

Hourly Observations for August 3, 2020

Temp ( °F °C ) Dew Point ( °F °C ) Humidity (%) Winds ( mph kmh ) Pressure ( in mb ) Visibility ( mi km ) Precip ( " mm )
12:15 am 00:15 Clear 59 15.1 57 13.9 93 93 N N/A 30.14 1021 10 16 N/A
12:35 am 00:35 Clear 58 14.7 56 13.6 93 93 N N/A 30.14 1021 10 16 N/A
12:55 am 00:55 Clear 57 14.1 56 13.1 94 94 N N/A 30.15 1021 10 16 N/A
1:15 am 01:15 Clear 57 14 56 13.1 94 94 N N/A 30.16 1021 10 16 N/A
1:35 am 01:35 Clear 57 14 56 13.1 94 94 N N/A 30.16 1021 10 16 N/A
1:55 am 01:55 Clear 56 13.6 55 12.6 94 94 N N/A 30.16 1021 10 16 N/A
2:15 am 02:15 Clear 57 13.7 55 13 96 96 N N/A 30.15 1021 10 16 N/A
2:35 am 02:35 Clear 56 13.5 55 12.7 95 95 N N/A 30.15 1021 10 16 N/A
2:55 am 02:55 Clear 56 13.3 55 12.5 95 95 N N/A 30.15 1021 10 16 N/A
3:15 am 03:15 Clear 56 13.4 55 12.7 96 96 N N/A 30.14 1021 10 16 N/A
3:35 am 03:35 Clear 55 13 53 11.9 93 93 N N/A 30.15 1021 10 16 N/A
3:55 am 03:55 Clear 55 12.7 54 12 96 96 N N/A 30.15 1021 10 16 N/A
4:15 am 04:15 Clear 55 12.9 53 11.8 93 93 N N/A 30.14 1021 10 16 N/A
4:35 am 04:35 Clear 53 11.9 52 11.2 96 96 N N/A 30.15 1021 10 16 N/A
4:55 am 04:55 Clear 54 12.1 53 11.5 96 96 N N/A 30.14 1021 10 16 N/A
5:15 am 05:15 Clear 53 11.8 52 11.2 96 96 N N/A 30.15 1021 10 16 N/A
5:35 am 05:35 Clear 54 12 52 11.2 95 95 N N/A 30.15 1021 10 16 N/A
5:55 am 05:55 Clear 54 12.1 53 11.5 96 96 N N/A 30.15 1021 7 11 N/A
6:15 am 06:15 Clear 53 11.7 52 11.1 96 96 N N/A 30.15 1021 10 16 N/A
6:35 am 06:35 Clear 52 11.3 51 10.7 96 96 N N/A 30.16 1021 10 16 N/A
6:55 am 06:55 Sunny 52 11.3 51 10.8 97 97 N N/A 30.18 1022 10 16 N/A
7:15 am 07:15 Sunny 53 11.7 52 11.2 97 97 N N/A 30.18 1022 10 16 N/A
7:35 am 07:35 Sunny 55 12.6 54 12.1 97 97 N N/A 30.18 1022 10 16 N/A
7:55 am 07:55 Sunny 57 14 56 13.4 96 96 N N/A 30.17 1022 10 16 N/A
8:15 am 08:15 Sunny 59 15.2 57 14.1 93 93 N N/A 30.17 1022 10 16 N/A
8:35 am 08:35 Sunny 62 16.8 58 14.6 87 87 N N/A 30.15 1021 10 16 N/A
8:55 am 08:55 Sunny 64 18 57 14.1 78 78 SSE 3 6 30.15 1021 10 16 N/A
9:15 am 09:15 Sunny 65 18.4 58 14.5 78 78 SE 5 7 30.15 1021 10 16 N/A
9:35 am 09:35 Sunny 67 19.5 58 14.3 72 72 SSE 3 6 30.14 1021 10 16 N/A
9:55 am 09:55 Sunny 68 20 58 14.2 69 69 S 5 7 30.14 1021 10 16 N/A
10:15 am 10:15 Sunny 69 20.8 58 14.7 68 68 SSW 5 7 30.13 1020 10 16 N/A
10:35 am 10:35 Sunny 70 20.9 57 14 65 65 SSW 6 9 30.13 1020 10 16 N/A
10:55 am 10:55 Sunny 71 21.4 58 14.3 64 64 S 3 6 30.12 1020 10 16 N/A
11:15 am 11:15 Partly Cloudy 72 22.3 57 13.7 58 58 S 5 7 30.12 1020 10 16 N/A
11:35 am 11:35 Sunny 72 22.2 57 14 60 60 SSE 3 6 30.11 1020 10 16 N/A
11:55 am 11:55 Partly Cloudy 72 22.3 56 13.4 57 57 ESE 5 7 30.11 1020 10 16 N/A
12:15 pm 12:15 Partly Cloudy 72 22.1 56 13.2 57 57 S 3 6 30.11 1020 10 16 N/A
12:35 pm 12:35 Mostly Cloudy 73 22.7 56 13.1 55 55 SSE 5 7 30.09 1019 10 16 N/A
12:55 pm 12:55 Partly Cloudy 72 22.4 54 12.3 53 53 N N/A 30.09 1019 10 16 N/A
1:15 pm 13:15 Mostly Cloudy 74 23.3 55 12.5 51 51 SSE 3 6 30.07 1018 10 16 N/A
1:35 pm 13:35 Partly Cloudy 74 23.3 53 11.6 48 48 N N/A 30.08 1019 10 16 N/A
1:55 pm 13:55 Mostly Cloudy 75 23.7 55 12.9 51 51 E 3 6 30.06 1018 10 16 N/A
2:15 pm 14:15 Cloudy 74 23.6 54 12.1 49 49 S 3 6 30.06 1018 10 16 N/A
2:35 pm 14:35 Mostly Cloudy 75 23.9 56 13.6 53 53 E 6 9 30.05 1018 10 16 N/A
2:55 pm 14:55 Mostly Cloudy 76 24.2 55 12.7 49 49 E 6 9 30.05 1018 10 16 N/A
3:15 pm 15:15 Mostly Cloudy 75 24.1 55 12.7 49 49 NNE 6 9 30.05 1018 10 16 N/A
3:35 pm 15:35 Mostly Cloudy 75 23.7 55 12.5 50 50 SE 3 6 30.04 1017 10 16 N/A
3:55 pm 15:55 Partly Cloudy 76 24.2 55 12.8 49 49 N N/A 30.04 1017 10 16 N/A
4:15 pm 16:15 Mostly Cloudy 76 24.5 55 12.8 48 48 SSW 5 7 30.03 1017 10 16 N/A
4:35 pm 16:35 Mostly Cloudy 74 23.6 55 12.6 50 50 N N/A 30.03 1017 10 16 N/A
4:55 pm 16:55 Mostly Cloudy 76 24.3 55 12.5 48 48 N N/A 30.03 1017 10 16 N/A
5:15 pm 17:15 Mostly Cloudy 76 24.3 54 12.2 47 47 ESE 3 6 30.01 1016 10 16 N/A
5:35 pm 17:35 Cloudy 76 24.4 56 13.4 50 50 ESE 5 7 30.02 1017 10 16 N/A
5:55 pm 17:55 Cloudy 75 23.8 56 13.5 53 53 ESE 3 6 30.02 1016 10 16 N/A
6:15 pm 18:15 Partly Cloudy 75 24 55 12.9 50 50 E 5 7 30.01 1016 10 16 N/A
6:35 pm 18:35 Sunny 75 23.9 55 12.5 49 49 N N/A 30.00 1016 10 16 N/A
6:55 pm 18:55 Sunny 74 23.6 56 13.2 52 52 N N/A 30.00 1016 10 16 N/A
7:15 pm 19:15 Partly Cloudy 74 23.6 56 13.3 53 53 E 3 6 29.99 1015 10 16 N/A
7:35 pm 19:35 Sunny 74 23.5 58 14.2 56 56 ESE 5 7 29.99 1016 10 16 N/A
7:55 pm 19:55 Sunny 73 23 59 15 61 61 SE 3 6 29.99 1016 10 16 N/A
8:15 pm 20:15 Sunny 71 21.8 61 16 70 70 ESE 5 7 29.99 1016 10 16 N/A
8:35 pm 20:35 Sunny 68 20.1 62 16.5 80 80 ESE 3 6 30.02 1016 10 16 N/A
8:55 pm 20:55 Partly Cloudy 68 19.9 61 16.2 79 79 SE 3 6 30.02 1017 10 16 N/A
9:15 pm 21:15 Mostly Cloudy 66 19 61 16.3 84 84 ESE 5 7 30.04 1017 10 16 N/A
9:35 pm 21:35 Mostly Cloudy 66 19.1 60 15.3 79 79 ESE 7 11 30.05 1018 10 16 N/A
9:55 pm 21:55 Partly Cloudy 65 18.3 59 15.2 82 82 ESE 6 9 30.07 1018 10 16 N/A
10:15 pm 22:15 Mostly Cloudy 64 17.6 60 15.4 87 87 ESE 6 9 30.10 1019 10 16 N/A
10:35 pm 22:35 Cloudy 65 18.1 60 15.7 86 86 ESE 7 11 30.10 1019 10 16 N/A
10:55 pm 22:55 Cloudy 65 18.1 60 15.5 85 85 SE 6 9 30.09 1019 10 16 N/A
11:15 pm 23:15 Cloudy 64 18 60 15.5 85 85 ESE 6 9 30.10 1019 10 16 N/A
11:35 pm 23:35 Cloudy 65 18.1 60 15.3 84 84 SE 8 13 30.10 1019 10 16 N/A
11:55 pm 23:55 Mostly Cloudy 64 17.7 59 15.2 85 85 ESE 7 11 30.10 1019 10 16 N/A

Powered by AerisWeather